Linden, WI

3:15 PM CDT on September 28, 2016 (GMT -0500)
Iowa County

Weather History for KMRJ - November, 2011

Change the Weather History Date:

Saturday, November 19, 2011

  Actual Average (KLNR) Record (KLNR)
Temperature  
Mean Temperature 46 °F -  
Max Temperature 51 °F 42 °F 55 °F (2003)
Min Temperature 41 °F 26 °F 19 °F (2013)
Degree Days  
Heating Degree Days 19    
Moisture  
Dew Point 32 °F    
Average Humidity 63    
Maximum Humidity 93    
Minimum Humidity 42    
Precipitation  
Precipitation 0.00 in - - ()
Sea Level Pressure  
Sea Level Pressure 29.72 in    
Wind  
Wind Speed 8 mph (SSE)    
Max Wind Speed 14 mph    
Max Gust Speed 18 mph    
Visibility 10 miles    
Events Rain    
Averages and records for this station are not official NWS values.
T = Trace of Precipitation, MM = Missing Value Source: NWS Daily Summary

Daily Weather History Graph

Daily Weather History Graph

Search for Another Location

Airport or City:

Trip Planner

Search our weather history database for the weather conditions in past years. The results will help you decide how hot, cold, wet, or windy it might be!

Date:

Astronomy

Nov. 19, 2011 Rise Set
Actual Time 6:57 AM CST 4:34 PM CST
Civil Twilight 6:26 AM CST 5:05 PM CST
Nautical Twilight 5:52 AM CST 5:39 PM CST
Astronomical Twilight 5:18 AM CST 6:13 PM CST
Moon 12:09 AM CST (11/19) 1:00 PM CST (11/19)
Length of Visible Light 10h 38m
Length of Day
9h 36m
Last Quarter, 38% of the Moon is Illuminated
Nov 19
Last Quarter
Nov 25
New
Dec 2
First Quarter
Dec 10
Full
Dec 17
Last Quarter

Hourly Weather History & Observations

Time (CST) Temp. Windchill Dew Point Humidity Pressure Visibility Wind Dir Wind Speed Gust Speed Precip Events Conditions
12:15 AM 42.8 °F 38.0 °F 23.0 °F 46% 29.78 in 10.0 mi South 8.1 mph - N/A   Overcast
12:35 AM 42.8 °F 38.0 °F 23.0 °F 46% 29.77 in 10.0 mi South 8.1 mph - N/A   Overcast
12:55 AM 42.8 °F 37.0 °F 23.0 °F 46% 29.77 in 10.0 mi South 10.4 mph - N/A   Overcast
1:15 AM 42.8 °F 36.6 °F 23.0 °F 46% 29.76 in 10.0 mi South 11.5 mph - N/A   Overcast
1:35 AM 42.8 °F 36.2 °F 21.2 °F 42% 29.76 in 10.0 mi South 12.7 mph 17.3 mph N/A   Overcast
1:55 AM 42.8 °F 37.5 °F 23.0 °F 46% 29.77 in 10.0 mi South 9.2 mph - N/A   Overcast
2:15 AM 42.8 °F 38.0 °F 21.2 °F 42% 29.78 in 10.0 mi South 8.1 mph - N/A   Overcast
2:35 AM 42.8 °F 38.0 °F 23.0 °F 46% 29.79 in 10.0 mi South 8.1 mph - N/A   Overcast
2:55 AM 42.8 °F 37.5 °F 23.0 °F 46% 29.78 in 10.0 mi South 9.2 mph - N/A   Overcast
3:15 AM 42.8 °F 39.3 °F 23.0 °F 46% 29.78 in 10.0 mi South 5.8 mph - N/A   Overcast
3:35 AM 41.0 °F 37.1 °F 23.0 °F 49% 29.78 in 10.0 mi SSE 5.8 mph - N/A   Overcast
3:55 AM 41.0 °F 35.8 °F 23.0 °F 49% 29.77 in 10.0 mi SSE 8.1 mph - N/A   Overcast
4:15 AM 41.0 °F 35.8 °F 24.8 °F 53% 29.77 in 10.0 mi SSE 8.1 mph - N/A   Overcast
4:35 AM 42.8 °F 37.0 °F 23.0 °F 46% 29.78 in 10.0 mi South 10.4 mph - N/A   Overcast
5:15 AM 42.8 °F 38.6 °F 23.0 °F 46% 29.78 in 10.0 mi South 6.9 mph - N/A   Overcast
5:35 AM 42.8 °F 38.0 °F 23.0 °F 46% 29.77 in 10.0 mi SSE 8.1 mph - N/A   Overcast
6:15 AM 42.8 °F 37.5 °F 23.0 °F 46% 29.78 in 10.0 mi SSE 9.2 mph - N/A   Overcast
6:35 AM 41.0 °F 35.2 °F 23.0 °F 49% 29.78 in 10.0 mi South 9.2 mph - N/A   Overcast
6:55 AM 41.0 °F 35.2 °F 24.8 °F 53% 29.77 in 10.0 mi SSE 9.2 mph - N/A   Overcast
7:15 AM 41.0 °F 36.4 °F 24.8 °F 53% 29.78 in 10.0 mi South 6.9 mph - N/A   Overcast
7:55 AM 42.8 °F 37.0 °F 26.6 °F 53% 29.77 in 10.0 mi SSE 10.4 mph - N/A   Overcast
8:15 AM 42.8 °F 38.6 °F 26.6 °F 53% 29.77 in 10.0 mi SSE 6.9 mph - N/A   Overcast
8:35 AM 42.8 °F 38.6 °F 28.4 °F 57% 29.77 in 10.0 mi SSE 6.9 mph - N/A   Overcast
8:55 AM 42.8 °F 38.0 °F 28.4 °F 57% 29.75 in 10.0 mi SSE 8.1 mph - N/A   Overcast
9:15 AM 42.8 °F 35.8 °F 28.4 °F 57% 29.74 in 10.0 mi SSE 13.8 mph - N/A   Overcast
9:35 AM 42.8 °F 36.6 °F 28.4 °F 57% 29.73 in 10.0 mi SSE 11.5 mph - N/A   Overcast
9:55 AM 44.6 °F 39.2 °F 28.4 °F 53% 29.72 in 10.0 mi SSE 10.4 mph - N/A   Overcast
10:15 AM 44.6 °F 40.2 °F 28.4 °F 53% 29.72 in 10.0 mi SSE 8.1 mph - N/A   Overcast
10:35 AM 44.6 °F 40.2 °F 30.2 °F 57% 29.72 in 10.0 mi SE 8.1 mph - N/A   Overcast
10:55 AM 44.6 °F 40.2 °F 30.2 °F 57% 29.70 in 10.0 mi SSE 8.1 mph - N/A   Overcast
11:15 AM 44.6 °F 40.2 °F 30.2 °F 57% 29.71 in 10.0 mi SSE 8.1 mph - N/A   Overcast
12:15 PM 42.8 °F 38.6 °F 35.6 °F 76% 29.68 in 4.0 mi South 6.9 mph - N/A   Drizzle
12:35 PM 42.8 °F 38.0 °F 37.4 °F 81% 29.66 in 4.0 mi SSE 8.1 mph - N/A   Drizzle
12:55 PM 42.8 °F 39.3 °F 39.2 °F 87% 29.66 in 5.0 mi SSE 5.8 mph - N/A   Light Drizzle
1:15 PM 42.8 °F 40.1 °F 39.2 °F 87% 29.65 in 7.0 mi ESE 4.6 mph - N/A Rain Rain
1:35 PM 42.8 °F 40.1 °F 39.2 °F 87% 29.64 in 10.0 mi ESE 4.6 mph - N/A   Light Drizzle
1:55 PM 42.8 °F 41.1 °F 39.2 °F 87% 29.63 in 10.0 mi East 3.5 mph - N/A   Overcast
2:15 PM 44.6 °F 41.4 °F 39.2 °F 81% 29.62 in 10.0 mi ESE 5.8 mph - N/A   Overcast
2:35 PM 44.6 °F 41.4 °F 39.2 °F 81% 29.62 in 10.0 mi ESE 5.8 mph - N/A   Overcast
2:55 PM 44.6 °F 42.2 °F 39.2 °F 81% 29.63 in 10.0 mi SE 4.6 mph - N/A   Overcast
3:15 PM 44.6 °F 40.7 °F 39.2 °F 81% 29.62 in 10.0 mi SE 6.9 mph - N/A   Overcast
3:35 PM 46.4 °F 44.3 °F 39.2 °F 76% 29.63 in 10.0 mi SE 4.6 mph - N/A   Overcast
3:55 PM 46.4 °F 44.3 °F 37.4 °F 71% 29.63 in 10.0 mi SSE 4.6 mph - N/A   Overcast
4:15 PM 46.4 °F 44.3 °F 37.4 °F 71% 29.63 in 10.0 mi SSE 4.6 mph - N/A   Overcast
4:35 PM 48.2 °F - 37.4 °F 66% 29.64 in 10.0 mi South 4.6 mph - N/A   Overcast
4:55 PM 48.2 °F - 37.4 °F 66% 29.64 in 10.0 mi South 3.5 mph - N/A   Overcast
5:15 PM 48.2 °F - 39.2 °F 71% 29.64 in 10.0 mi South 3.5 mph - N/A Rain Light Rain
5:35 PM 48.2 °F - 41.0 °F 76% 29.65 in 10.0 mi SW 3.5 mph - N/A   Overcast
5:55 PM 50.0 °F - 41.0 °F 71% 29.65 in 10.0 mi SSW 6.9 mph - N/A   Overcast
6:15 PM 50.0 °F - 41.0 °F 71% 29.66 in 10.0 mi SW 6.9 mph - N/A   Overcast
6:35 PM 50.0 °F - 42.8 °F 76% 29.66 in 10.0 mi SW 8.1 mph - N/A   Overcast
6:55 PM 51.8 °F - 42.8 °F 71% 29.68 in 10.0 mi SW 9.2 mph - N/A   Overcast
7:35 PM 51.8 °F - 42.8 °F 71% 29.69 in 10.0 mi WSW 5.8 mph - N/A   Overcast
7:55 PM 46.4 °F 40.4 °F 41.0 °F 81% 29.72 in 10.0 mi NW 13.8 mph 18.4 mph N/A   Overcast
8:15 PM 44.6 °F 40.7 °F 41.0 °F 87% 29.73 in 10.0 mi WNW 6.9 mph - N/A   Overcast
8:35 PM 44.6 °F 39.7 °F 41.0 °F 87% 29.74 in 10.0 mi WNW 9.2 mph - N/A   Overcast
8:55 PM 42.8 °F 37.5 °F 41.0 °F 93% 29.76 in 10.0 mi WNW 9.2 mph - N/A   Overcast
9:15 PM 42.8 °F 37.0 °F 41.0 °F 93% 29.77 in 7.0 mi WNW 10.4 mph - N/A   Overcast
9:35 PM 42.8 °F 37.0 °F 39.2 °F 87% 29.79 in 7.0 mi WNW 10.4 mph - N/A   Overcast
9:55 PM 42.8 °F 37.5 °F 39.2 °F 87% 29.81 in 7.0 mi NW 9.2 mph 16.1 mph N/A   Overcast
10:15 PM 41.0 °F 34.7 °F 37.4 °F 87% 29.82 in 10.0 mi NW 10.4 mph 17.3 mph N/A   Overcast
10:35 PM 41.0 °F 32.8 °F 37.4 °F 87% 29.85 in 10.0 mi NW 16.1 mph 19.6 mph N/A   Overcast
10:55 PM 39.2 °F 33.0 °F 35.6 °F 87% 29.88 in 10.0 mi NW 9.2 mph 18.4 mph N/A   Overcast
11:15 PM 39.2 °F 31.2 °F 35.6 °F 87% 29.90 in 10.0 mi NW 13.8 mph 21.9 mph N/A   Overcast
11:35 PM 37.4 °F 30.3 °F 33.8 °F 87% 29.92 in 10.0 mi NW 10.4 mph 17.3 mph N/A   Overcast